Location: ????????
(55.5142°N, 38.4323°E)
Time: 05:29:55
(UTC+00:00)

Cosmos 1802 Rocket - Pass Details

Date: 13 September 2025
Orbit: 953 x 1011 km, 82.9° (Epoch: 15 December)

Event Time Altitude Azimuth Distance (km) Brightness Sun altitude
Exits shadow 21:26:33 57° 72° (ENE) 1,118 4.3 -31.0°
Drops below altitude 10° 21:32:05 10° 16° (NNE) 2,708 7.2 -31.0°
Sets 21:34:38 0° 13° (NNE) 3,665 8.1 -31.0°
